Home > Weather > Munich > Past weeks

Flag for Germany Past Weather in Munich, Bavaria, Germany — Yesterday and Last 2 Weeks

Now
70 °F

Sunny.


Feels Like: 70 °F
Forecast: 58 / 74 °F
Wind: 2 mph from South

Location: Oberpfaffenhofen

Current Time: Jun 29, 2016 at 10:05:06 PM

Latest Report: Jun 29, 2016 at 8:50 PM


Visibility: 10 mi

Pressure: 29.98 "Hg (28.20 "Hg at 526m altitude)

Humidity: 83%

Dew Point: 64 °F

Location of MunichLocation

Past Weather in Munich — Graph

°F

Munich Temperature Yesterday

Maximum temperature yesterday: 77 °F (at 6:50 PM)
Minimum temperature yesterday: 59 °F (at 6:50 AM)
Average temperature yesterday: 71 °F

High & Low Weather Summary for the Past Weeks

 TemperatureHumidityPressure
High86 °F (Jun 23, 3:20 PM)100% (Jun 16, 6:50 PM)30.30 "Hg (Jun 16, 6:50 PM)
Low48 °F (Jun 17, 6:50 AM)32% (Jun 28, 6:50 PM)29.56 "Hg (Jun 16, 9:50 AM)
Average68 °F65%30.03 "Hg
* Reported Jun 15 6:50 AM — Jun 29 8:20 PM, Munich, Weather by CustomWeather, © 2016

Note: Actual official high and low records may vary slightly from our data, if they occured in-between our weather recording intervals... More about our weather records

Advertising

Munich Weather History for the Previous 24 Hours

Scroll right to see more
 ConditionsComfort  
Time TempWeatherWind HumidityBarometerVisibility
8:20 PM
Wed, Jun 29
75 °FSunny.No wind54%29.98 "Hg10 mi
7:50 PM75 °FSunny.2 mph57%29.95 "Hg10 mi
7:20 PM77 °FPassing clouds.2 mph51%29.98 "HgN/A
6:50 PM77 °FPassing clouds.2 mph51%29.98 "HgN/A
6:20 PM75 °FPassing clouds.5 mph50%29.98 "HgN/A
5:50 PM77 °FScattered clouds.6 mph51%29.98 "HgN/A
5:20 PM77 °FScattered clouds.6 mph51%29.98 "HgN/A
4:50 PM77 °FScattered clouds.5 mph47%29.98 "HgN/A
4:20 PM75 °FScattered clouds.7 mph50%30.01 "HgN/A
3:50 PM75 °FBroken clouds.8 mph54%30.01 "HgN/A
3:20 PM75 °FPartly sunny.5 mph54%30.01 "HgN/A
2:50 PM75 °FBroken clouds.6 mph57%30.01 "HgN/A
2:20 PM73 °FPartly sunny.7 mph57%30.04 "HgN/A
1:50 PM72 °FPartly sunny.8 mph61%30.04 "HgN/A
1:20 PM72 °FPartly sunny.6 mph61%30.04 "HgN/A
12:50 PM72 °FPartly sunny.8 mph65%30.04 "HgN/A
12:20 PM70 °FPartly sunny.9 mph64%30.04 "HgN/A
11:50 AM70 °FBroken clouds.61 mph64%30.04 "HgN/A
11:20 AM66 °FBroken clouds.10 mph73%30.04 "HgN/A
10:50 AM66 °FSprinkles. Broken clouds.12 mph73%30.04 "HgN/A
10:20 AM66 °FSprinkles. Partly sunny.13 mph73%30.04 "HgN/A
9:50 AM68 °FSunny.12 mph64%30.04 "Hg10 mi
9:20 AM68 °FSunny.10 mph64%30.04 "Hg10 mi
8:50 AM66 °FSunny.9 mph68%30.04 "Hg10 mi
8:20 AM66 °FSunny.8 mph73%30.04 "Hg10 mi
7:50 AM66 °FSunny.8 mph73%30.04 "Hg10 mi
7:20 AM64 °FSunny.7 mph73%30.04 "Hg10 mi
6:50 AM63 °FSunny.6 mph77%30.04 "Hg10 mi
Weather by CustomWeather, © 2016

See weather overviewHow to use our weather pages